Regional Weather Roundup
Issued by NWS

Home | Current Version | Previous Version | Graphics & Text | Print | Product List | Glossary On
Versions: 1 2 3 4 5 6 7 8 9 10 11 12 13 14 15 16 17 18 19 20 21 22 23 24 25 26 27 28 29 30 31 32 33 34 35 36 37 38 39 40 41 42 43 44 45 46 47 48 49 50
000
ASUS43 KLMK 181610
RWRKY
KENTUCKY REGIONAL WEATHER ROUNDUP
NATIONAL WEATHER SERVICE LOUISVILLE KY
1200 PM EDT THU SEP 18 2014

NOTE "FAIR" INDICATES FEW OR NO CLOUDS BELOW 12,000 FEET
WITH NO SIGNIFICANT WEATHER AND/OR OBSTRUCTIONS TO VISIBILITY.

KYZ001>023-026-027-061>063-070>075-181700-
WESTERN AND SOUTH CENTRAL KENTUCKY

CITY           SKY/WX    TMP DP  RH WIND       PRES   REMARKS
PADUCAH        PTSUNNY   73  58  59 E7        30.03S
HENDERSON      PTSUNNY   68  54  60 E8        30.06F
OWENSBORO      PTSUNNY   69  54  58 E10       30.06F
HOPKINSVILLE   NOT AVBL
BOWLING GREEN  PTSUNNY   71  56  58 NE8       30.05S
GLASGOW        MOSUNNY   71  55  56 E7        30.05S
$$

KYZ024-025-028>034-038-045-046-053-181700-
NORTH CENTRAL KENTUCKY

CITY           SKY/WX    TMP DP  RH WIND       PRES   REMARKS
LOUISVILLE/SDF CLOUDY    70  50  49 NE14      30.09R
LOUISVILLE/LOU MOSUNNY   69  51  52 E12       30.09S
FORT KNOX      NOT AVBL
$$

KYZ035>037-039>044-047>052-055>060-089>105-181700-
NORTHEAST KENTUCKY

CITY           SKY/WX    TMP DP  RH WIND       PRES   REMARKS
LEXINGTON      PTSUNNY   70  52  52 E9        30.09R
COVINGTON      MOSUNNY   67  47  48 NE7       30.10S
FRANKFORT      SUNNY     67  51  56 E8        30.08S
$$

KYZ054-064>069-076>088-106>120-181700-
SOUTHEAST KENTUCKY

CITY           SKY/WX    TMP DP  RH WIND       PRES   REMARKS
JACKSON        MOSUNNY   66  53  63 CALM      30.08R
LONDON         MOSUNNY   71  54  54 NE8       30.08R
SOMERSET       NOT AVBL
MIDDLESBORO    CLOUDY    69  58  68 CALM      30.07S
MONTICELLO     MOSUNNY   73  57  57 E8        30.08R
$$




USA.gov is the U.S. government's official web portal to all federal, state and local government web resources and services.